Altoona, PA

3:14 AM EDT on October 23, 2019 (GMT -0400)
Altoona-Blair County

Weather History for KAOO - August, 2019

Change the Weather History Date:

Wednesday, August 14, 2019

  Actual Average Record
Temperature  
Mean Temperature 74 °F 70 °F  
Max Temperature 83 °F 81 °F 95 °F (2002)
Min Temperature 65 °F 59 °F 44 °F (1983)
Degree Days  
Heating Degree Days 0 1  
Month to date heating degree days 0 6  
Since 1 June heating degree days 38 74  
Since 1 July heating degree days 0 16  
Cooling Degree Days 9 5  
Month to date cooling degree days 85 81  
Year to date cooling degree days 547 408  
Since 1 June cooling degree days 478 375  
Growing Degree Days 24 (Base 50)    
Moisture  
Dew Point 66 °F    
Average Humidity 76    
Maximum Humidity 93    
Minimum Humidity 58    
Precipitation  
Precipitation T in 0.10 in 0.85 in (1976)
Month to date precipitation 1.47 1.32  
Year to date precipitation 28.37 22.24  
Sea Level Pressure  
Sea Level Pressure 29.87 in    
Wind  
Wind Speed 3 mph (NNE)    
Max Wind Speed 13 mph    
Max Gust Speed 16 mph    
Visibility 5 miles    
Events Fog , Rain    
T = Trace of Precipitation, MM = Missing Value Source: NWS Daily Summary

Daily Weather History Graph

Daily Weather History Graph

Search for Another Location

Airport or City:

Astronomy

Aug. 14, 2019 Rise Set
Actual Time 6:23 AM EDT 8:12 PM EDT
Civil Twilight 5:53 AM EDT 8:41 PM EDT
Nautical Twilight 5:18 AM EDT 9:16 PM EDT
Astronomical Twilight 4:40 AM EDT 9:54 PM EDT
Moon 8:05 PM EDT (8/14) 5:18 AM EDT (8/14)
Length of Visible Light 14h 47m
Length of Day
13h 48m
Waxing Gibbous, 99% of the Moon is Illuminated
Aug 14
Waxing Gibbous
Aug 15
Full
Aug 23
Last Quarter
Aug 30
New
Sep 5
First Quarter

Hourly Weather History & Observations

Time (EDT) Temp. Heat Index Dew Point Humidity Pressure Visibility Wind Dir Wind Speed Gust Speed Precip Events Conditions
12:02 AM 69.1 °F - 66.9 °F 93% 29.84 in 1.2 mi Calm Calm - N/A   Overcast
12:22 AM 68.0 °F - 66.0 °F 93% 29.85 in 0.8 mi NNE 3.5 mph - N/A   Overcast
12:29 AM 69.1 °F - 66.9 °F 93% 29.85 in 1.8 mi Calm Calm - N/A   Overcast
12:38 AM 69.1 °F - 66.9 °F 93% 29.85 in 2.5 mi Calm Calm - N/A   Overcast
12:49 AM 69.8 °F - 66.2 °F 88% 29.85 in 2.0 mi Calm Calm - N/A   Overcast
12:53 AM 69.1 °F - 66.0 °F 90% 29.82 in 2.0 mi Calm Calm - N/A   Overcast
1:00 AM 69.1 °F - 66.0 °F 90% 29.84 in 1.8 mi Calm Calm - N/A   Overcast
1:17 AM 69.1 °F - 66.0 °F 90% 29.84 in 3.0 mi NNE 5.8 mph - N/A   Overcast
1:40 AM 69.1 °F - 66.9 °F 93% 29.84 in 2.0 mi Calm Calm - N/A   Overcast
1:42 AM 68.0 °F - 66.0 °F 93% 29.84 in 1.0 mi Variable 3.5 mph - N/A   Overcast
1:45 AM 68.0 °F - 66.0 °F 93% 29.84 in 0.5 mi Calm Calm - N/A Fog Fog
1:53 AM 68.0 °F - 66.0 °F 93% 29.81 in 0.5 mi NE 3.5 mph - N/A Fog Fog
2:03 AM 68.0 °F - 66.0 °F 93% 29.84 in 0.8 mi NNE 4.6 mph - N/A   Mist
2:11 AM 68.0 °F - 66.0 °F 93% 29.84 in 1.2 mi North 6.9 mph - N/A   Overcast
2:23 AM 68.0 °F - 66.0 °F 93% 29.84 in 2.5 mi NNE 6.9 mph - N/A   Overcast
2:30 AM 68.0 °F - 66.0 °F 93% 29.84 in 3.0 mi North 4.6 mph - N/A   Overcast
2:40 AM 68.0 °F - 66.0 °F 93% 29.84 in 4.0 mi North 3.5 mph - N/A   Overcast
2:53 AM 68.0 °F - 66.0 °F 93% 29.81 in 3.0 mi Calm Calm - N/A   Overcast
3:08 AM 68.0 °F - 66.9 °F 96% 29.83 in 2.5 mi ENE 4.6 mph - 0.00 in Rain Light Rain
3:26 AM 68.0 °F - 66.0 °F 93% 29.83 in 3.0 mi Calm Calm - 0.00 in   Overcast
3:53 AM 68.0 °F - 66.0 °F 93% 29.81 in 3.0 mi Calm Calm - 0.00 in   Overcast
3:58 AM 68.0 °F - 66.0 °F 93% 29.83 in 2.5 mi Calm Calm - N/A   Overcast
4:09 AM 68.0 °F - 66.0 °F 93% 29.83 in 3.0 mi Calm Calm - N/A   Overcast
4:53 AM 68.0 °F - 66.0 °F 93% 29.82 in 5.0 mi Calm Calm - N/A   Overcast
5:08 AM 68.0 °F - 66.9 °F 96% 29.85 in 4.0 mi Calm Calm - N/A   Overcast
5:39 AM 69.1 °F - 66.0 °F 90% 29.86 in 4.0 mi Calm Calm - N/A   Overcast
5:53 AM 68.0 °F - 66.0 °F 93% 29.84 in 4.0 mi Calm Calm - N/A   Overcast
6:26 AM 68.0 °F - 66.0 °F 93% 29.87 in 2.5 mi Calm Calm - N/A   Overcast
6:42 AM 68.0 °F - 66.0 °F 93% 29.87 in 1.5 mi Calm Calm - N/A   Overcast
6:53 AM 68.0 °F - 66.0 °F 93% 29.84 in 1.8 mi Calm Calm - N/A   Overcast
7:01 AM 68.0 °F - 66.0 °F 93% 29.87 in 2.0 mi Calm Calm - N/A   Overcast
7:15 AM 69.1 °F - 66.9 °F 93% 29.88 in 3.0 mi Calm Calm - N/A   Overcast
7:41 AM 70.0 °F - 66.9 °F 90% 29.90 in 5.0 mi Calm Calm - N/A   Overcast
7:53 AM 70.0 °F - 66.9 °F 90% 29.88 in 6.0 mi Calm Calm - N/A   Overcast
8:12 AM 70.0 °F - 66.0 °F 87% 29.90 in 8.0 mi NW 3.5 mph - N/A   Overcast
8:39 AM 71.1 °F - 66.9 °F 87% 29.90 in 7.0 mi Calm Calm - N/A   Overcast
8:53 AM 71.1 °F - 66.9 °F 87% 29.88 in 8.0 mi Calm Calm - N/A   Overcast
9:23 AM 71.1 °F - 66.0 °F 84% 29.92 in 10.0 mi NW 6.9 mph - N/A   Overcast
9:53 AM 72.0 °F - 66.9 °F 84% 29.89 in 10.0 mi Calm Calm - N/A   Overcast
10:00 AM 73.0 °F - 68.0 °F 84% 29.92 in 10.0 mi Calm Calm - N/A   Overcast
10:23 AM 73.0 °F - 66.9 °F 81% 29.92 in 10.0 mi Variable 4.6 mph - N/A   Overcast
10:53 AM 73.0 °F - 66.9 °F 81% 29.89 in 10.0 mi North 6.9 mph - N/A   Overcast
11:53 AM 77.0 °F - 69.1 °F 76% 29.89 in 10.0 mi NNE 8.1 mph - N/A   Scattered Clouds
12:53 PM 77.0 °F - 66.9 °F 71% 29.90 in 10.0 mi NE 4.6 mph - N/A   Mostly Cloudy
1:19 PM 78.1 °F - 66.9 °F 68% 29.92 in 10.0 mi North 9.2 mph - N/A   Scattered Clouds
1:53 PM 78.1 °F - 66.9 °F 68% 29.89 in 10.0 mi NE 5.8 mph - N/A   Partly Cloudy
2:53 PM 78.1 °F - 66.0 °F 66% 29.89 in 10.0 mi NNE 4.6 mph - N/A   Mostly Cloudy
3:13 PM 78.1 °F - 66.9 °F 68% 29.92 in 10.0 mi North 4.6 mph - N/A   Overcast
3:53 PM 81.0 °F 83.8 °F 68.0 °F 65% 29.88 in 10.0 mi North 6.9 mph - N/A   Partly Cloudy
4:53 PM 81.0 °F 83.0 °F 66.0 °F 60% 29.89 in 10.0 mi Calm Calm - N/A   Scattered Clouds
5:53 PM 82.0 °F 84.1 °F 66.0 °F 58% 29.89 in 10.0 mi Variable 5.8 mph - N/A   Clear
6:53 PM 80.1 °F 81.7 °F 64.0 °F 58% 29.88 in 10.0 mi WNW 4.6 mph - N/A   Partly Cloudy
7:53 PM 73.9 °F - 64.9 °F 73% 29.91 in 10.0 mi NE 4.6 mph - N/A   Clear
8:53 PM 73.0 °F - 64.9 °F 76% 29.92 in 10.0 mi NNE 3.5 mph - N/A   Partly Cloudy
9:53 PM 69.1 °F - 64.9 °F 87% 29.95 in 10.0 mi Variable 3.5 mph - N/A   Clear
10:53 PM 66.9 °F - 64.0 °F 90% 29.96 in 7.0 mi Calm Calm - N/A   Clear
11:53 PM 66.0 °F - 64.0 °F 93% 29.96 in 6.0 mi Calm Calm - N/A   Clear